Location: Carrollton
(32.9537°N, 96.8903°W)
Time: 20:03:41
(UTC+00:00)

Daily predictions for brighter satellites

Satellite Brightness Start Highest point End
(mag) Time Altitude Azimuth Time Altitude Azimuth Time Altitude Azimuth
ASTRO F (AKARI) 4.0 12:00:32 10° N 12:03:36 84° WNW 12:06:43 10° SSW
SJ-12 4.5 12:00:20 10° N 12:04:01 34° WNW 12:07:41 10° SW
Envisat 3.7 12:01:57 10° NNE 12:06:57 57° E 12:11:56 10° S
SKYMED 2 3.6 12:02:53 10° S 12:07:09 59° W 12:11:27 10° NNW
ATLAS 2AS CENTAUR R/B 3.0 12:06:58 10° SW 12:14:47 67° WNW 12:22:42 10° NNE
Meteor 1-4 Rocket 3.0 12:12:13 10° N 12:15:38 60° E 12:19:01 10° SSE
FALCON 9 DEB 3.7 12:12:59 10° SSW 12:16:05 54° SE 12:19:13 10° NE
USA 234 3.7 12:10:41 10° NNE 12:16:44 42° NW 12:22:48 10° WSW
H-2A R/B 2.6 12:15:40 10° NNE 12:19:30 68° ESE 12:23:17 10° S
Delta 2 Rocket 3.4 12:16:38 14° WNW 12:20:38 83° NNE 12:24:44 10° ESE
USA 276 2.2 12:18:15 15° WNW 12:20:45 62° SW 12:23:52 10° SE
Okean O Rocket 3.4 12:17:30 10° NNE 12:21:38 37° E 12:25:45 10° SSE
CENTAUR R/B 3.4 12:15:15 10° NNW 12:23:46 85° ENE 12:32:41 10° SSE
H-2A R/B 3.0 12:21:25 10° N 12:25:12 48° WNW 12:28:55 10° SSW
Meteor 1-26 Rocket 4.2 12:22:15 10° N 12:28:04 78° W 12:33:39 10° S
PAYLOAD B 4.5 12:23:39 10° NNE 12:29:10 78° ESE 12:34:39 10° S
CZ-4C R/B 1.8 12:24:58 10° SSW 12:29:35 81° WNW 12:35:00 10° NNE
SL-16 R/B 3.8 12:28:30 10° WNW 12:31:24 14° W 12:34:18 10° SW
NOSS 3-2 (A) 4.4 12:24:26 10° NW 12:32:14 56° WSW 12:40:39 10° S
MOS 1-B 4.4 12:27:31 10° NNE 12:33:21 88° WNW 12:39:09 10° SSW
Cosmos 1933 4.0 12:29:43 10° NNW 12:33:29 36° W 12:37:13 10° SSW
Cosmos 1633 3.9 12:32:39 10° SW 12:35:11 18° WNW 12:37:43 10° NNW
Cosmos 1500 Rocket 3.7 12:31:25 10° S 12:35:43 79° E 12:40:01 10° N
SMAP 3.5 12:33:04 10° NNE 12:37:42 69° ESE 12:42:19 10° S
CZ-4B DEB 4.2 12:33:02 10° N 12:38:27 69° WNW 12:43:53 10° SSW
Cosmos 1844 4.4 12:33:18 10° S 12:38:44 59° ESE 12:44:11 10° NNE
RESURS DK-1 2.5 12:35:46 10° SSW 12:39:54 84° ESE 12:44:04 10° NNE
Nadezhda 1 Rocket 4.1 23:35:20 10° S 23:41:36 75° E 23:47:57 10° N
SL-16 R/B 3.1 23:46:26 10° SSE 23:51:13 29° ESE 23:56:00 10° NE
PAYLOAD B 4.4 23:46:43 10° SSE 23:52:18 84° WSW 23:57:55 10° NNW
Lacrosse 5 rocket 2.4 23:49:43 10° S 23:52:47 24° ESE 23:55:45 10° ENE
Abrixas rocket 4.1 23:53:57 10° N 23:54:36 11° NNE 23:55:15 10° NE
Cosmos 2292 4.3 23:51:52 10° S 23:54:52 82° W 23:58:02 10° N
